Location: OLV Amersfoort
(52.1552°N, 5.3872°E)
Time: 06:13:24
(UTC+02:00)

ISS - Visible Passes

Search period start: 28 July 2014 00:00
Search period end: 07 August 2014 00:00
Orbit: 411 x 420 km, 51.6° (Epoch: 27 July)

Date Brightness Start Highest point End Pass type
(mag) Time Alt. Az. Time Alt. Az. Time Alt. Az.
28 Jul -3.1 02:47:09 51° SSE 02:47:11 51° SSE 02:50:28 10° E visible
28 Jul -3.3 04:20:26 10° W 04:23:49 84° S 04:27:11 10° E visible
29 Jul -1.7 01:59:57 24° ESE 01:59:57 24° ESE 02:01:37 10° E visible
29 Jul -3.4 03:32:49 20° W 03:35:00 82° S 03:38:23 10° E visible
29 Jul -3.2 05:08:20 10° W 05:11:41 64° SSW 05:15:01 10° ESE visible
30 Jul -3.4 02:45:38 56° SW 02:46:12 74° S 02:49:34 10° E visible
30 Jul -3.3 04:19:31 10° W 04:22:53 75° S 04:26:15 10° ESE visible
31 Jul -2.4 01:58:29 37° E 01:58:29 37° E 02:00:44 10° E visible
31 Jul -3.4 03:31:21 15° W 03:34:05 82° S 03:37:27 10° E visible
31 Jul -2.8 05:07:27 10° W 05:10:38 40° SSW 05:13:49 10° SE visible
01 Aug -0.8 01:11:25 13° E 01:11:25 13° E 01:11:54 10° E visible
01 Aug -3.4 02:44:18 44° W 02:45:15 84° S 02:48:38 10° E visible
01 Aug -3.2 04:18:36 10° W 04:21:53 53° SSW 04:25:11 10° ESE visible
02 Aug -2.5 01:57:28 41° E 01:57:28 41° E 01:59:47 10° E visible
02 Aug -3.4 03:30:22 15° W 03:33:06 66° SSW 03:36:27 10° ESE visible
02 Aug -2.0 05:06:44 10° W 05:09:27 23° SSW 05:12:11 10° SSE visible
02 Aug -0.9 23:28:19 10° SSW 23:28:35 12° SSW 23:28:35 12° SSW visible
03 Aug -3.4 02:44:20 77° S 02:44:20 77° S 02:47:39 10° ESE visible
03 Aug -2.5 04:17:44 10° W 04:20:46 32° SSW 04:23:48 10° SE visible
03 Aug -1.9 22:40:03 10° SSW 22:42:31 19° SE 22:44:58 10° E visible
04 Aug -2.9 00:15:29 10° WSW 00:18:07 47° SSW 00:18:07 47° SSW visible
04 Aug -2.0 03:33:27 26° SSE 03:33:27 26° SSE 03:35:14 10° SE visible
04 Aug -1.3 05:06:45 10° WSW 05:08:06 12° SW 05:09:27 10° SSW visible
04 Aug -3.1 23:26:47 10° SW 23:30:00 46° SSE 23:32:19 17° E visible
05 Aug -2.1 01:03:14 10° W 01:05:13 33° W 01:05:13 33° W visible
05 Aug -2.6 22:38:10 10° SW 22:41:14 34° SSE 22:44:19 10° E visible
06 Aug -3.4 00:14:24 10° W 00:17:45 79° S 00:18:26 53° E visible
06 Aug -0.6 01:51:05 10° W 01:51:18 12° W 01:51:18 12° W visible
06 Aug -3.4 23:25:34 10° WSW 23:28:54 69° SSE 23:31:22 17° E visible
